This is the latest recevied weather packets stored in our database for station/object N1YZ. If no packets are shown the sender has not sent any weather packets the latest 10 day(s).
| Time | Temp. | Humidity | Pressure | Rain* | Wind** | Luminosity | Snow |
|---|---|---|---|---|---|---|---|
| 1788483807 | 29.44° C | 74% | 1034.3 hPa | 0 mm | - | 0 W/m² | - |
| 1788483501 | 30° C | 73% | 1034.3 hPa | 0 mm | - | 0 W/m² | - |
| 1788483197 | 30° C | 73% | 1034.2 hPa | 0 mm | - | 0 W/m² | - |
| 1788482891 | 29.44° C | 73% | 1034.1 hPa | 0 mm | - | 0 W/m² | - |
| 1788482588 | 29.44° C | 73% | 1034.1 hPa | 0 mm | - | 0 W/m² | - |
| 1788482283 | 29.44° C | 74% | 1034.2 hPa | 0 mm | - | 0 W/m² | - |
| 1788481979 | 30° C | 73% | 1034.1 hPa | 0 mm | - | 0 W/m² | - |
| 1788481674 | 30° C | 72% | 1034.1 hPa | 0 mm | - | 0 W/m² | - |
| 1788481370 | 30.56° C | 71% | 1034.2 hPa | 0 mm | - | 0 W/m² | - |
| 1788481069 | 30.56° C | 70% | 1033.9 hPa | 0 mm | - | 0 W/m² | - |
| 1788480764 | 30.56° C | 70% | 1033.9 hPa | 0 mm | - | 1 W/m² | - |
| 1788480459 | 30.56° C | 69% | 1033.9 hPa | 0 mm | - | 2 W/m² | - |
| 1788480154 | 30.56° C | 71% | 1034.2 hPa | 0 mm | - | 5 W/m² | - |
| 1788479853 | 30.56° C | 72% | 1034 hPa | 0 mm | - | 9 W/m² | - |
| 1788479550 | 30.56° C | 71% | 1033.9 hPa | 0 mm | - | 13 W/m² | - |
| 1788479243 | 31.11° C | 70% | 1033.8 hPa | 0 mm | - | 16 W/m² | - |
| 1788478940 | 31.11° C | 69% | 1034 hPa | 0 mm | - | 17 W/m² | - |
| 1788478636 | 31.67° C | 67% | 1033.8 hPa | 0 mm | - | 17 W/m² | - |
| 1788478332 | 31.67° C | 66% | 1034.1 hPa | 0 mm | - | 17 W/m² | - |
| 1788478030 | 31.67° C | 67% | 1034.1 hPa | 0 mm | - | 18 W/m² | - |
| 1788477727 | 31.67° C | 68% | 1033.8 hPa | 0 mm | - | 20 W/m² | - |
| 1788477425 | 31.67° C | 66% | 1033.9 hPa | 0 mm | - | 19 W/m² | - |
| 1788477121 | 32.78° C | 64% | 1033.8 hPa | 0 mm | - | 21 W/m² | - |
| 1788476816 | 32.78° C | 62% | 1033.7 hPa | 0 mm | - | 23 W/m² | - |
| 1788476516 | 33.33° C | 60% | 1033.9 hPa | 0 mm | - | 26 W/m² | - |
* Rain latest hour (hover to see other rain measurements)
** Current wind speed in m/s (hover to see current wind gust speed)